Time,TemperatureF,DewpointF,PressureIn,WindDirection,WindDirectionDegrees,WindSpeedMPH,WindSpeedGustMPH,Humidity,HourlyPrecipIn,Conditions,Clouds,dailyrainin,SoftwareType,DateUTC
2013-05-19 00:01:00,70.1,68.0,29.78,North,353,3.0,13.0,93,0.00,,,0.00,WUHU216DAVISVP2,2013-05-19 05:01:00,
2013-05-19 00:06:00,70.0,67.9,29.78,NNW,337,6.0,13.0,93,0.00,,,0.00,WUHU216DAVISVP2,2013-05-19 05:06:00,
2013-05-19 00:11:00,69.9,67.8,29.78,NNW,336,10.0,13.0,93,0.00,,,0.00,WUHU216DAVISVP2,2013-05-19 05:11:00,
2013-05-19 00:16:00,69.9,67.8,29.78,NNW,344,7.0,11.0,93,0.00,,,0.00,WUHU216DAVISVP2,2013-05-19 05:16:00,
2013-05-19 00:21:00,69.9,67.8,29.78,NNW,341,6.0,13.0,93,0.00,,,0.00,WUHU216DAVISVP2,2013-05-19 05:21:00,
2013-05-19 00:26:00,69.8,67.7,29.78,North,350,9.0,13.0,93,0.00,,,0.00,WUHU216DAVISVP2,2013-05-19 05:26:00,
2013-05-19 00:31:00,69.8,67.7,29.78,NNW,343,3.0,13.0,93,0.00,,,0.00,WUHU216DAVISVP2,2013-05-19 05:31:00,
2013-05-19 00:36:00,69.8,67.7,29.78,North,350,9.0,13.0,93,0.00,,,0.00,WUHU216DAVISVP2,2013-05-19 05:36:00,
2013-05-19 00:41:00,69.8,67.7,29.78,NNW,345,5.0,15.0,93,0.00,,,0.00,WUHU216DAVISVP2,2013-05-19 05:41:00,
2013-05-19 00:46:00,69.7,67.6,29.78,North,349,8.0,15.0,93,0.00,,,0.00,WUHU216DAVISVP2,2013-05-19 05:46:00,
2013-05-19 00:51:00,69.7,67.6,29.78,North,360,5.0,15.0,93,0.00,,,0.00,WUHU216DAVISVP2,2013-05-19 05:51:00,
2013-05-19 00:56:00,69.7,67.6,29.78,North,353,9.0,15.0,93,0.00,,,0.00,WUHU216DAVISVP2,2013-05-19 05:56:00,
2013-05-19 01:01:00,69.6,67.5,29.78,North,1,5.0,12.0,93,0.00,,,0.00,WUHU216DAVISVP2,2013-05-19 06:01:00,
2013-05-19 01:06:00,69.5,67.7,29.77,NNW,341,7.0,12.0,94,0.00,,,0.00,WUHU216DAVISVP2,2013-05-19 06:06:00,
2013-05-19 01:11:00,69.5,67.7,29.77,NW,316,5.0,12.0,94,0.00,,,0.00,WUHU216DAVISVP2,2013-05-19 06:11:00,
2013-05-19 01:16:00,69.3,67.5,29.77,NNW,333,7.0,13.0,94,0.00,,,0.00,WUHU216DAVISVP2,2013-05-19 06:16:00,
2013-05-19 01:21:00,69.3,67.5,29.77,North,352,7.0,13.0,94,0.00,,,0.00,WUHU216DAVISVP2,2013-05-19 06:21:00,
2013-05-19 01:26:00,69.2,67.4,29.77,NW,326,5.0,13.0,94,0.00,,,0.00,WUHU216DAVISVP2,2013-05-19 06:26:00,
2013-05-19 01:31:00,69.1,67.3,29.77,North,354,8.0,11.0,94,0.00,,,0.00,WUHU216DAVISVP2,2013-05-19 06:31:00,
2013-05-19 01:36:00,69.0,67.2,29.77,NNW,344,8.0,11.0,94,0.00,,,0.00,WUHU216DAVISVP2,2013-05-19 06:36:00,
2013-05-19 01:41:00,69.0,67.2,29.76,NNW,330,6.0,11.0,94,0.00,,,0.00,WUHU216DAVISVP2,2013-05-19 06:41:00,
2013-05-19 01:46:00,68.9,67.1,29.76,NW,325,8.0,11.0,94,0.00,,,0.00,WUHU216DAVISVP2,2013-05-19 06:46:00,
2013-05-19 01:51:00,68.8,67.0,29.77,North,355,5.0,11.0,94,0.00,,,0.00,WUHU216DAVISVP2,2013-05-19 06:51:00,
2013-05-19 01:56:00,68.8,67.3,29.77,NNW,338,5.0,11.0,95,0.00,,,0.00,WUHU216DAVISVP2,2013-05-19 06:56:00,
2013-05-19 02:01:00,68.9,67.0,29.78,North,351,2.0,10.0,94,0.00,,,0.00,WUHU216DAVISVP2,2013-05-19 07:01:00,
2013-05-19 02:06:00,68.8,67.2,29.79,North,8,4.0,10.0,95,0.00,,,0.00,WUHU216DAVISVP2,2013-05-19 07:06:00,
2013-05-19 02:11:00,68.8,67.2,29.78,NNE,15,2.0,10.0,95,0.00,,,0.00,WUHU216DAVISVP2,2013-05-19 07:11:00,
2013-05-19 02:16:00,68.7,67.2,29.78,NNE,15,1.0,8.0,95,0.00,,,0.00,WUHU216DAVISVP2,2013-05-19 07:16:00,
2013-05-19 02:21:00,68.7,67.2,29.78,NNE,15,2.0,5.0,95,0.00,,,0.00,WUHU216DAVISVP2,2013-05-19 07:21:00,
2013-05-19 02:26:00,68.6,67.1,29.78,NNW,333,2.0,5.0,95,0.00,,,0.00,WUHU216DAVISVP2,2013-05-19 07:26:00,
2013-05-19 02:31:00,68.5,67.0,29.78,NNW,343,2.0,8.0,95,0.00,,,0.00,WUHU216DAVISVP2,2013-05-19 07:31:00,
2013-05-19 02:36:00,68.5,67.0,29.78,NNW,347,4.0,8.0,95,0.00,,,0.00,WUHU216DAVISVP2,2013-05-19 07:36:00,
2013-05-19 02:41:00,68.5,67.0,29.78,North,356,1.0,8.0,95,0.00,,,0.00,WUHU216DAVISVP2,2013-05-19 07:41:00,
2013-05-19 02:46:00,68.6,67.0,29.78,North,358,1.0,7.0,95,0.00,,,0.00,WUHU216DAVISVP2,2013-05-19 07:46:00,
2013-05-19 02:51:00,68.6,67.0,29.78,North,3,3.0,6.0,95,0.00,,,0.00,WUHU216DAVISVP2,2013-05-19 07:51:00,
2013-05-19 02:56:00,68.5,67.0,29.78,North,3,3.0,6.0,95,0.00,,,0.00,WUHU216DAVISVP2,2013-05-19 07:56:00,
2013-05-19 03:01:00,68.5,67.0,29.78,North,3,4.0,6.0,95,0.00,,,0.00,WUHU216DAVISVP2,2013-05-19 08:01:00,
2013-05-19 03:06:00,68.4,66.9,29.78,North,357,2.0,6.0,95,0.00,,,0.00,WUHU216DAVISVP2,2013-05-19 08:06:00,
2013-05-19 03:11:00,68.4,66.9,29.78,North,357,3.0,6.0,95,0.00,,,0.00,WUHU216DAVISVP2,2013-05-19 08:11:00,
2013-05-19 03:16:00,68.4,66.8,29.78,North,355,1.0,6.0,95,0.00,,,0.00,WUHU216DAVISVP2,2013-05-19 08:16:00,
2013-05-19 03:21:00,68.4,66.9,29.77,NNW,338,2.0,7.0,95,0.00,,,0.00,WUHU216DAVISVP2,2013-05-19 08:21:00,
2013-05-19 03:26:00,68.4,66.9,29.77,NNW,330,0.0,10.0,95,0.00,,,0.00,WUHU216DAVISVP2,2013-05-19 08:26:00,
2013-05-19 03:31:00,68.3,66.8,29.77,NNW,331,1.0,10.0,95,0.00,,,0.00,WUHU216DAVISVP2,2013-05-19 08:31:00,
2013-05-19 03:36:00,68.3,66.8,29.77,NNW,331,2.0,10.0,95,0.00,,,0.00,WUHU216DAVISVP2,2013-05-19 08:36:00,
2013-05-19 03:41:00,68.4,67.1,29.76,NNW,329,1.0,10.0,96,0.00,,,0.00,WUHU216DAVISVP2,2013-05-19 08:41:00,
2013-05-19 03:46:00,68.3,66.8,29.76,NNW,329,1.0,7.0,95,0.00,,,0.00,WUHU216DAVISVP2,2013-05-19 08:46:00,
2013-05-19 03:51:00,68.3,66.8,29.75,NW,324,2.0,7.0,95,0.00,,,0.00,WUHU216DAVISVP2,2013-05-19 08:51:00,
2013-05-19 03:56:00,68.2,67.0,29.75,NW,324,2.0,7.0,96,0.00,,,0.00,WUHU216DAVISVP2,2013-05-19 08:56:00,
2013-05-19 04:01:00,68.2,67.0,29.76,NW,324,1.0,7.0,96,0.00,,,0.00,WUHU216DAVISVP2,2013-05-19 09:01:00,
2013-05-19 04:06:00,68.3,67.1,29.75,NW,319,2.0,7.0,96,0.00,,,0.00,WUHU216DAVISVP2,2013-05-19 09:06:00,
2013-05-19 04:11:00,68.2,67.0,29.74,NW,319,5.0,5.0,96,0.00,,,0.00,WUHU216DAVISVP2,2013-05-19 09:11:00,
2013-05-19 04:16:00,68.2,67.0,29.74,NW,318,3.0,5.0,96,0.00,,,0.00,WUHU216DAVISVP2,2013-05-19 09:16:00,
2013-05-19 04:21:00,68.1,66.9,29.73,WNW,299,5.0,6.0,96,0.00,,,0.00,WUHU216DAVISVP2,2013-05-19 09:21:00,
2013-05-19 04:26:00,68.1,66.9,29.73,NW,308,3.0,6.0,96,0.00,,,0.00,WUHU216DAVISVP2,2013-05-19 09:26:00,
2013-05-19 04:31:00,68.1,66.9,29.73,NW,323,4.0,8.0,96,0.00,,,0.00,WUHU216DAVISVP2,2013-05-19 09:31:00,
2013-05-19 04:36:00,68.1,66.9,29.73,NW,325,1.0,8.0,96,0.00,,,0.00,WUHU216DAVISVP2,2013-05-19 09:36:00,
2013-05-19 04:41:00,68.1,66.9,29.72,NW,308,4.0,9.0,96,0.00,,,0.00,WUHU216DAVISVP2,2013-05-19 09:41:00,
2013-05-19 04:46:00,68.2,67.0,29.73,NW,320,6.0,9.0,96,0.00,,,0.00,WUHU216DAVISVP2,2013-05-19 09:46:00,
2013-05-19 04:51:00,68.2,67.0,29.74,NNW,333,4.0,9.0,96,0.00,,,0.00,WUHU216DAVISVP2,2013-05-19 09:51:00,
2013-05-19 04:56:00,68.2,67.0,29.74,NNW,339,4.0,8.0,96,0.00,,,0.00,WUHU216DAVISVP2,2013-05-19 09:56:00,
2013-05-19 05:01:00,68.3,67.0,29.74,NNW,339,6.0,7.0,96,0.00,,,0.00,WUHU216DAVISVP2,2013-05-19 10:01:00,
2013-05-19 05:06:00,68.3,67.1,29.74,NNW,339,8.0,8.0,96,0.00,,,0.00,WUHU216DAVISVP2,2013-05-19 10:06:00,
2013-05-19 05:11:00,68.4,67.2,29.74,NNW,346,3.0,8.0,96,0.00,,,0.00,WUHU216DAVISVP2,2013-05-19 10:11:00,
2013-05-19 05:16:00,68.5,67.2,29.74,NW,324,1.0,8.0,96,0.00,,,0.00,WUHU216DAVISVP2,2013-05-19 10:16:00,
2013-05-19 05:21:00,68.4,67.2,29.74,NW,324,5.0,8.0,96,0.00,,,0.00,WUHU216DAVISVP2,2013-05-19 10:21:00,
2013-05-19 05:26:00,68.4,67.2,29.74,NNW,331,4.0,8.0,96,0.00,,,0.00,WUHU216DAVISVP2,2013-05-19 10:26:00,
2013-05-19 05:31:00,68.4,67.2,29.74,NW,323,2.0,8.0,96,0.00,,,0.00,WUHU216DAVISVP2,2013-05-19 10:31:00,
2013-05-19 05:36:00,68.4,67.2,29.74,NNW,341,4.0,8.0,96,0.00,,,0.00,WUHU216DAVISVP2,2013-05-19 10:36:00,
2013-05-19 05:41:00,68.4,67.2,29.74,NW,325,4.0,7.0,96,0.00,,,0.00,WUHU216DAVISVP2,2013-05-19 10:41:00,
2013-05-19 05:46:00,68.4,67.2,29.74,NW,326,2.0,8.0,96,0.00,,,0.00,WUHU216DAVISVP2,2013-05-19 10:46:00,
2013-05-19 05:51:00,68.5,67.3,29.75,NNW,339,2.0,8.0,96,0.00,,,0.00,WUHU216DAVISVP2,2013-05-19 10:51:00,
2013-05-19 05:56:00,68.4,67.2,29.74,NNW,339,3.0,8.0,96,0.00,,,0.00,WUHU216DAVISVP2,2013-05-19 10:56:00,
2013-05-19 06:01:00,68.4,67.2,29.74,NNW,337,1.0,8.0,96,0.00,,,0.00,WUHU216DAVISVP2,2013-05-19 11:01:00,
2013-05-19 06:06:00,68.4,67.2,29.74,NNW,335,1.0,8.0,96,0.00,,,0.00,WUHU216DAVISVP2,2013-05-19 11:06:00,
2013-05-19 06:11:00,68.3,67.1,29.75,NNW,331,3.0,8.0,96,0.00,,,0.00,WUHU216DAVISVP2,2013-05-19 11:11:00,
2013-05-19 06:16:00,68.3,67.1,29.74,NNW,331,4.0,8.0,96,0.00,,,0.00,WUHU216DAVISVP2,2013-05-19 11:16:00,
2013-05-19 06:21:00,68.4,67.2,29.75,NW,325,2.0,6.0,96,0.00,,,0.00,WUHU216DAVISVP2,2013-05-19 11:21:00,
2013-05-19 06:26:00,68.4,67.2,29.75,NNW,333,4.0,7.0,96,0.00,,,0.00,WUHU216DAVISVP2,2013-05-19 11:26:00,
2013-05-19 06:31:00,68.6,67.3,29.75,North,350,2.0,8.0,96,0.00,,,0.00,WUHU216DAVISVP2,2013-05-19 11:31:00,
2013-05-19 06:36:00,68.6,67.4,29.75,NNW,332,1.0,8.0,96,0.00,,,0.00,WUHU216DAVISVP2,2013-05-19 11:36:00,
2013-05-19 06:41:00,68.7,67.5,29.75,NNW,338,4.0,8.0,96,0.00,,,0.00,WUHU216DAVISVP2,2013-05-19 11:41:00,
2013-05-19 06:46:00,68.9,67.6,29.75,NNW,337,7.0,8.0,96,0.00,,,0.00,WUHU216DAVISVP2,2013-05-19 11:46:00,
2013-05-19 06:51:00,68.9,67.7,29.76,NNW,339,1.0,8.0,96,0.00,,,0.00,WUHU216DAVISVP2,2013-05-19 11:51:00,
2013-05-19 06:56:00,69.0,67.8,29.76,NNW,341,4.0,8.0,96,0.00,,,0.00,WUHU216DAVISVP2,2013-05-19 11:56:00,
2013-05-19 07:01:00,69.2,68.0,29.76,NNW,332,2.0,7.0,96,0.00,,,0.00,WUHU216DAVISVP2,2013-05-19 12:01:00,
2013-05-19 07:07:00,69.3,68.1,29.77,North,351,2.0,7.0,96,0.00,,,0.00,WUHU216DAVISVP2,2013-05-19 12:07:00,
2013-05-19 07:12:00,69.4,68.2,29.77,NNW,345,1.0,7.0,96,0.00,,,0.00,WUHU216DAVISVP2,2013-05-19 12:12:00,
2013-05-19 07:17:00,69.7,68.5,29.78,NNW,336,3.0,7.0,96,0.00,,,0.00,WUHU216DAVISVP2,2013-05-19 12:17:00,
2013-05-19 07:22:00,69.9,68.7,29.78,NNW,336,2.0,7.0,96,0.00,,,0.00,WUHU216DAVISVP2,2013-05-19 12:22:00,
2013-05-19 07:27:00,70.0,68.7,29.78,NNW,336,1.0,7.0,96,0.00,,,0.00,WUHU216DAVISVP2,2013-05-19 12:27:00,
2013-05-19 07:32:00,70.1,68.6,29.78,NNW,327,2.0,7.0,95,0.00,,,0.00,WUHU216DAVISVP2,2013-05-19 12:32:00,
2013-05-19 07:37:00,70.1,68.6,29.78,NNW,327,1.0,7.0,95,0.00,,,0.00,WUHU216DAVISVP2,2013-05-19 12:37:00,
2013-05-19 07:41:00,70.3,68.7,29.78,NW,323,2.0,7.0,95,0.00,,,0.00,WUHU216DAVISVP2,2013-05-19 12:41:00,
2013-05-19 07:47:00,70.4,68.9,29.79,NW,323,1.0,7.0,95,0.00,,,0.00,WUHU216DAVISVP2,2013-05-19 12:47:00,
2013-05-19 07:52:00,70.5,69.0,29.79,NW,323,1.0,6.0,95,0.00,,,0.00,WUHU216DAVISVP2,2013-05-19 12:52:00,
2013-05-19 07:57:00,70.7,69.1,29.80,NNW,327,1.0,6.0,95,0.00,,,0.00,WUHU216DAVISVP2,2013-05-19 12:57:00,
2013-05-19 08:01:00,70.7,69.2,29.80,NNW,327,5.0,6.0,95,0.00,,,0.00,WUHU216DAVISVP2,2013-05-19 13:01:00,
2013-05-19 08:06:00,70.6,69.0,29.80,NW,326,3.0,6.0,95,0.00,,,0.00,WUHU216DAVISVP2,2013-05-19 13:06:00,
2013-05-19 08:12:00,70.5,69.0,29.80,NNW,329,5.0,6.0,95,0.00,,,0.00,WUHU216DAVISVP2,2013-05-19 13:12:00,
2013-05-19 08:17:00,70.5,68.6,29.80,NW,324,1.0,8.0,94,0.00,,,0.00,WUHU216DAVISVP2,2013-05-19 13:17:00,
2013-05-19 08:22:00,70.3,68.5,29.79,NNW,339,2.0,9.0,94,0.00,,,0.00,WUHU216DAVISVP2,2013-05-19 13:22:00,
2013-05-19 08:27:00,70.3,68.4,29.80,NNW,345,0.0,9.0,94,0.00,,,0.00,WUHU216DAVISVP2,2013-05-19 13:27:00,
2013-05-19 08:32:00,70.1,68.3,29.80,NNW,344,3.0,9.0,94,0.00,,,0.00,WUHU216DAVISVP2,2013-05-19 13:32:00,
2013-05-19 08:37:00,70.0,68.2,29.79,NNW,344,1.0,8.0,94,0.00,,,0.00,WUHU216DAVISVP2,2013-05-19 13:37:00,
2013-05-19 08:42:00,70.2,68.4,29.79,NW,322,3.0,8.0,94,0.00,,,0.00,WUHU216DAVISVP2,2013-05-19 13:42:00,
2013-05-19 08:47:00,70.2,68.4,29.78,NNW,333,4.0,10.0,94,0.00,,,0.00,WUHU216DAVISVP2,2013-05-19 13:47:00,
2013-05-19 08:52:00,70.4,68.6,29.78,NW,310,5.0,10.0,94,0.00,,,0.00,WUHU216DAVISVP2,2013-05-19 13:52:00,
2013-05-19 08:57:00,70.4,68.3,29.77,NW,324,9.0,11.0,93,0.00,,,0.00,WUHU216DAVISVP2,2013-05-19 13:57:00,
2013-05-19 09:01:00,70.7,68.5,29.77,NW,317,5.0,12.0,93,0.00,,,0.00,WUHU216DAVISVP2,2013-05-19 14:01:00,
2013-05-19 09:07:00,70.7,68.3,29.77,WNW,301,4.0,12.0,92,0.00,,,0.00,WUHU216DAVISVP2,2013-05-19 14:07:00,
2013-05-19 09:12:00,70.8,68.3,29.77,WNW,290,7.0,12.0,92,0.00,,,0.00,WUHU216DAVISVP2,2013-05-19 14:12:00,
2013-05-19 09:17:00,71.1,68.4,29.77,WNW,302,1.0,12.0,91,0.00,,,0.00,WUHU216DAVISVP2,2013-05-19 14:17:00,
2013-05-19 09:22:00,71.6,68.8,29.77,NNW,337,5.0,10.0,91,0.00,,,0.00,WUHU216DAVISVP2,2013-05-19 14:22:00,
2013-05-19 09:27:00,72.0,68.2,29.76,NW,321,5.0,11.0,88,0.00,,,0.00,WUHU216DAVISVP2,2013-05-19 14:27:00,
2013-05-19 09:32:00,71.9,67.8,29.76,NW,322,7.0,11.0,87,0.00,,,0.00,WUHU216DAVISVP2,2013-05-19 14:32:00,
2013-05-19 09:37:00,72.0,68.2,29.76,NW,326,6.0,11.0,88,0.00,,,0.00,WUHU216DAVISVP2,2013-05-19 14:37:00,
2013-05-19 09:42:00,72.2,67.8,29.76,NNW,327,10.0,12.0,86,0.00,,,0.00,WUHU216DAVISVP2,2013-05-19 14:42:00,
2013-05-19 09:47:00,72.4,68.0,29.76,NNW,335,4.0,12.0,86,0.00,,,0.00,WUHU216DAVISVP2,2013-05-19 14:47:00,
2013-05-19 09:52:00,72.6,67.8,29.76,NNW,330,10.0,12.0,85,0.00,,,0.00,WUHU216DAVISVP2,2013-05-19 14:52:00,
2013-05-19 09:57:00,72.8,68.0,29.76,NNW,337,9.0,12.0,85,0.00,,,0.00,WUHU216DAVISVP2,2013-05-19 14:57:00,
2013-05-19 10:02:00,73.0,68.3,29.76,NNW,329,1.0,12.0,85,0.00,,,0.00,WUHU216DAVISVP2,2013-05-19 15:02:00,
2013-05-19 10:07:00,73.3,67.5,29.76,NNW,335,5.0,12.0,82,0.00,,,0.00,WUHU216DAVISVP2,2013-05-19 15:07:00,
2013-05-19 10:12:00,73.6,67.5,29.76,North,349,7.0,13.0,81,0.00,,,0.00,WUHU216DAVISVP2,2013-05-19 15:12:00,
2013-05-19 10:17:00,73.7,67.5,29.76,North,355,9.0,15.0,81,0.00,,,0.00,WUHU216DAVISVP2,2013-05-19 15:17:00,
2013-05-19 10:22:00,73.5,67.1,29.75,NNW,335,9.0,18.0,80,0.00,,,0.00,WUHU216DAVISVP2,2013-05-19 15:22:00,
2013-05-19 10:27:00,73.9,67.5,29.75,NNE,25,4.0,18.0,80,0.00,,,0.00,WUHU216DAVISVP2,2013-05-19 15:27:00,
2013-05-19 10:32:00,74.2,67.0,29.75,NNW,348,6.0,18.0,78,0.00,,,0.00,WUHU216DAVISVP2,2013-05-19 15:32:00,
2013-05-19 10:37:00,74.3,66.4,29.75,North,353,0.0,18.0,76,0.00,,,0.00,WUHU216DAVISVP2,2013-05-19 15:37:00,
2013-05-19 10:42:00,74.6,67.4,29.75,North,355,4.0,13.0,78,0.00,,,0.00,WUHU216DAVISVP2,2013-05-19 15:42:00,
2013-05-19 10:47:00,74.6,65.9,29.75,NNE,15,2.0,20.0,74,0.00,,,0.00,WUHU216DAVISVP2,2013-05-19 15:47:00,
2013-05-19 10:52:00,74.8,65.3,29.75,NNE,25,4.0,20.0,72,0.00,,,0.00,WUHU216DAVISVP2,2013-05-19 15:52:00,
2013-05-19 10:57:00,74.9,65.8,29.75,NNE,31,8.0,20.0,73,0.00,,,0.00,WUHU216DAVISVP2,2013-05-19 15:57:00,
2013-05-19 11:02:00,75.1,65.3,29.75,NNE,15,5.0,20.0,71,0.00,,,0.00,WUHU216DAVISVP2,2013-05-19 16:02:00,
2013-05-19 11:07:00,75.1,65.7,29.74,North,4,8.0,14.0,72,0.00,,,0.00,WUHU216DAVISVP2,2013-05-19 16:07:00,
2013-05-19 11:12:00,75.1,64.9,29.74,NNE,25,3.0,17.0,70,0.00,,,0.00,WUHU216DAVISVP2,2013-05-19 16:12:00,
2013-05-19 11:17:00,75.5,65.7,29.74,NNW,347,12.0,17.0,71,0.00,,,0.00,WUHU216DAVISVP2,2013-05-19 16:17:00,
2013-05-19 11:22:00,75.4,65.5,29.74,NNW,346,16.0,18.0,71,0.00,,,0.00,WUHU216DAVISVP2,2013-05-19 16:22:00,
2013-05-19 11:27:00,75.1,64.8,29.74,North,351,5.0,18.0,70,0.00,,,0.00,WUHU216DAVISVP2,2013-05-19 16:27:00,
2013-05-19 11:32:00,74.9,64.7,29.74,North,357,5.0,18.0,70,0.00,,,0.00,WUHU216DAVISVP2,2013-05-19 16:32:00,
2013-05-19 11:37:00,75.1,65.6,29.74,NNW,337,6.0,17.0,72,0.00,,,0.00,WUHU216DAVISVP2,2013-05-19 16:37:00,
2013-05-19 11:42:00,75.2,64.9,29.74,North,8,8.0,17.0,70,0.00,,,0.00,WUHU216DAVISVP2,2013-05-19 16:42:00,
2013-05-19 11:47:00,74.7,64.1,29.74,NE,37,11.0,18.0,69,0.00,,,0.00,WUHU216DAVISVP2,2013-05-19 16:47:00,
2013-05-19 11:52:00,74.9,65.0,29.74,NNW,343,15.0,18.0,71,0.00,,,0.00,WUHU216DAVISVP2,2013-05-19 16:52:00,
2013-05-19 11:57:00,75.3,65.5,29.73,NNW,342,7.0,18.0,71,0.00,,,0.00,WUHU216DAVISVP2,2013-05-19 16:57:00,
2013-05-19 12:02:00,76.0,65.7,29.73,NNW,341,7.0,18.0,70,0.00,,,0.00,WUHU216DAVISVP2,2013-05-19 17:02:00,
2013-05-19 12:07:00,76.0,65.3,29.73,NNE,15,5.0,18.0,69,0.00,,,0.00,WUHU216DAVISVP2,2013-05-19 17:07:00,
2013-05-19 12:12:00,76.0,65.7,29.73,NNW,328,7.0,18.0,70,0.00,,,0.00,WUHU216DAVISVP2,2013-05-19 17:12:00,
2013-05-19 12:17:00,76.1,64.6,29.73,NNW,339,10.0,17.0,67,0.00,,,0.00,WUHU216DAVISVP2,2013-05-19 17:17:00,
2013-05-19 12:22:00,76.2,64.7,29.72,North,360,13.0,18.0,67,0.00,,,0.00,WUHU216DAVISVP2,2013-05-19 17:22:00,
2013-05-19 12:27:00,76.4,64.8,29.72,North,10,5.0,19.0,67,0.00,,,0.00,WUHU216DAVISVP2,2013-05-19 17:27:00,
2013-05-19 12:32:00,76.4,64.4,29.72,North,351,7.0,22.0,66,0.00,,,0.00,WUHU216DAVISVP2,2013-05-19 17:32:00,
2013-05-19 12:37:00,76.0,64.5,29.71,North,352,11.0,22.0,67,0.00,,,0.00,WUHU216DAVISVP2,2013-05-19 17:37:00,
2013-05-19 12:42:00,76.3,66.0,29.71,NW,320,14.0,22.0,70,0.00,,,0.00,WUHU216DAVISVP2,2013-05-19 17:42:00,
2013-05-19 12:47:00,76.6,65.5,29.71,NNW,341,11.0,22.0,68,0.00,,,0.00,WUHU216DAVISVP2,2013-05-19 17:47:00,
2013-05-19 12:52:00,77.0,65.9,29.71,NW,310,11.0,21.0,68,0.00,,,0.00,WUHU216DAVISVP2,2013-05-19 17:52:00,
2013-05-19 12:57:00,77.1,65.5,29.70,North,349,11.0,20.0,67,0.00,,,0.00,WUHU216DAVISVP2,2013-05-19 17:57:00,
2013-05-19 13:02:00,76.8,64.4,29.70,North,3,12.0,21.0,65,0.00,,,0.00,WUHU216DAVISVP2,2013-05-19 18:02:00,
2013-05-19 13:07:00,76.8,66.1,29.70,NW,319,11.0,21.0,69,0.00,,,0.00,WUHU216DAVISVP2,2013-05-19 18:07:00,
2013-05-19 13:12:00,76.9,65.3,29.70,NNW,327,9.0,21.0,67,0.00,,,0.00,WUHU216DAVISVP2,2013-05-19 18:12:00,
2013-05-19 13:17:00,77.1,66.0,29.69,NNW,337,7.0,21.0,68,0.00,,,0.00,WUHU216DAVISVP2,2013-05-19 18:17:00,
2013-05-19 13:22:00,77.0,65.0,29.69,NNW,345,6.0,24.0,66,0.00,,,0.00,WUHU216DAVISVP2,2013-05-19 18:22:00,
2013-05-19 13:27:00,77.4,66.2,29.69,North,351,9.0,24.0,68,0.00,,,0.00,WUHU216DAVISVP2,2013-05-19 18:27:00,
2013-05-19 13:32:00,77.5,65.5,29.69,ESE,103,19.0,24.0,66,0.00,,,0.00,WUHU216DAVISVP2,2013-05-19 18:32:00,
2013-05-19 13:37:00,77.3,64.9,29.68,North,349,14.0,24.0,65,0.00,,,0.00,WUHU216DAVISVP2,2013-05-19 18:37:00,
2013-05-19 13:42:00,77.5,66.4,29.68,NNW,339,13.0,20.0,68,0.00,,,0.00,WUHU216DAVISVP2,2013-05-19 18:42:00,
2013-05-19 13:47:00,77.7,65.2,29.68,North,8,14.0,26.0,65,0.00,,,0.00,WUHU216DAVISVP2,2013-05-19 18:47:00,
2013-05-19 13:52:00,77.8,65.3,29.67,NNW,339,9.0,26.0,65,0.00,,,0.00,WUHU216DAVISVP2,2013-05-19 18:52:00,
2013-05-19 13:57:00,78.1,66.0,29.67,NNW,346,9.0,26.0,66,0.00,,,0.00,WUHU216DAVISVP2,2013-05-19 18:57:00,
2013-05-19 14:02:00,78.1,66.1,29.67,NNW,332,10.0,21.0,66,0.00,,,0.00,WUHU216DAVISVP2,2013-05-19 19:02:00,
2013-05-19 14:07:00,78.4,66.7,29.67,North,349,5.0,20.0,67,0.00,,,0.00,WUHU216DAVISVP2,2013-05-19 19:07:00,
2013-05-19 14:12:00,78.6,66.5,29.66,NNW,328,17.0,20.0,66,0.00,,,0.00,WUHU216DAVISVP2,2013-05-19 19:12:00,
2013-05-19 14:17:00,78.7,64.8,29.66,NNW,341,13.0,24.0,62,0.00,,,0.00,WUHU216DAVISVP2,2013-05-19 19:17:00,
2013-05-19 14:22:00,79.1,64.7,29.66,NNW,343,15.0,24.0,61,0.00,,,0.00,WUHU216DAVISVP2,2013-05-19 19:22:00,
2013-05-19 14:27:00,79.3,65.4,29.66,NNW,345,16.0,24.0,62,0.00,,,0.00,WUHU216DAVISVP2,2013-05-19 19:27:00,
2013-05-19 14:32:00,79.7,65.3,29.66,NNW,332,11.0,24.0,61,0.00,,,0.00,WUHU216DAVISVP2,2013-05-19 19:32:00,
2013-05-19 14:37:00,80.2,65.7,29.66,North,8,8.0,21.0,61,0.00,,,0.00,WUHU216DAVISVP2,2013-05-19 19:37:00,
2013-05-19 14:42:00,80.5,65.1,29.66,NNW,345,18.0,19.0,59,0.00,,,0.00,WUHU216DAVISVP2,2013-05-19 19:42:00,
2013-05-19 14:47:00,80.4,64.5,29.66,NNW,339,8.0,22.0,58,0.00,,,0.00,WUHU216DAVISVP2,2013-05-19 19:47:00,
2013-05-19 14:52:00,80.5,64.1,29.66,North,349,17.0,22.0,57,0.00,,,0.00,WUHU216DAVISVP2,2013-05-19 19:52:00,
2013-05-19 14:57:00,80.7,64.3,29.65,NNW,338,9.0,22.0,57,0.00,,,0.00,WUHU216DAVISVP2,2013-05-19 19:57:00,
2013-05-19 15:02:00,80.9,63.9,29.65,North,356,9.0,24.0,56,0.00,,,0.00,WUHU216DAVISVP2,2013-05-19 20:02:00,
2013-05-19 15:07:00,80.9,65.4,29.65,WNW,300,9.0,26.0,59,0.00,,,0.00,WUHU216DAVISVP2,2013-05-19 20:07:00,
2013-05-19 15:12:00,81.3,65.3,29.65,NNW,339,7.0,26.0,58,0.00,,,0.00,WUHU216DAVISVP2,2013-05-19 20:12:00,
2013-05-19 15:17:00,81.8,65.8,29.65,North,356,8.0,26.0,58,0.00,,,0.00,WUHU216DAVISVP2,2013-05-19 20:17:00,
2013-05-19 15:22:00,82.1,65.6,29.65,North,356,5.0,21.0,57,0.00,,,0.00,WUHU216DAVISVP2,2013-05-19 20:22:00,
2013-05-19 15:27:00,82.2,65.7,29.64,NNW,344,10.0,18.0,57,0.00,,,0.00,WUHU216DAVISVP2,2013-05-19 20:27:00,
2013-05-19 15:32:00,82.5,65.4,29.64,North,360,3.0,17.0,56,0.00,,,0.00,WUHU216DAVISVP2,2013-05-19 20:32:00,
2013-05-19 15:37:00,82.7,64.6,29.64,North,350,9.0,19.0,54,0.00,,,0.00,WUHU216DAVISVP2,2013-05-19 20:37:00,
2013-05-19 15:42:00,82.6,62.8,29.64,NNW,343,13.0,20.0,51,0.00,,,0.00,WUHU216DAVISVP2,2013-05-19 20:42:00,
2013-05-19 15:47:00,82.9,61.9,29.63,NNW,345,13.0,20.0,49,0.00,,,0.00,WUHU216DAVISVP2,2013-05-19 20:47:00,
2013-05-19 15:52:00,83.0,61.4,29.63,NNW,332,21.0,21.0,48,0.00,,,0.00,WUHU216DAVISVP2,2013-05-19 20:52:00,
2013-05-19 15:57:00,83.0,62.0,29.63,NNW,337,15.0,22.0,49,0.00,,,0.00,WUHU216DAVISVP2,2013-05-19 20:57:00,
2013-05-19 16:02:00,83.3,62.3,29.63,North,4,15.0,22.0,49,0.00,,,0.00,WUHU216DAVISVP2,2013-05-19 21:02:00,
2013-05-19 16:07:00,83.3,62.3,29.62,NNW,348,9.0,25.0,49,0.00,,,0.00,WUHU216DAVISVP2,2013-05-19 21:07:00,
2013-05-19 16:12:00,83.8,63.9,29.62,North,360,11.0,25.0,51,0.00,,,0.00,WUHU216DAVISVP2,2013-05-19 21:12:00,
2013-05-19 16:17:00,83.8,63.9,29.62,North,353,10.0,25.0,51,0.00,,,0.00,WUHU216DAVISVP2,2013-05-19 21:17:00,
2013-05-19 16:22:00,83.7,63.8,29.62,North,353,12.0,21.0,51,0.00,,,0.00,WUHU216DAVISVP2,2013-05-19 21:22:00,
2013-05-19 16:27:00,83.6,63.7,29.61,NW,323,8.0,21.0,51,0.00,,,0.00,WUHU216DAVISVP2,2013-05-19 21:27:00,
2013-05-19 16:32:00,83.8,64.4,29.61,NNW,337,10.0,21.0,52,0.00,,,0.00,WUHU216DAVISVP2,2013-05-19 21:32:00,
2013-05-19 16:37:00,83.8,64.5,29.61,North,352,9.0,21.0,52,0.00,,,0.00,WUHU216DAVISVP2,2013-05-19 21:37:00,
2013-05-19 16:42:00,83.7,63.8,29.61,North,4,4.0,25.0,51,0.00,,,0.00,WUHU216DAVISVP2,2013-05-19 21:42:00,
2013-05-19 16:48:00,83.7,64.9,29.61,North,6,19.0,25.0,53,0.00,,,0.00,WUHU216DAVISVP2,2013-05-19 21:48:00,
2013-05-19 16:53:00,83.9,64.6,29.60,North,359,18.0,25.0,52,0.00,,,0.00,WUHU216DAVISVP2,2013-05-19 21:53:00,
2013-05-19 16:58:00,84.0,64.6,29.60,North,2,4.0,25.0,52,0.00,,,0.00,WUHU216DAVISVP2,2013-05-19 21:58:00,
2013-05-19 17:03:00,84.1,65.3,29.60,North,2,8.0,23.0,53,0.00,,,0.00,WUHU216DAVISVP2,2013-05-19 22:03:00,
2013-05-19 17:08:00,84.4,65.0,29.59,NNW,331,13.0,22.0,52,0.00,,,0.00,WUHU216DAVISVP2,2013-05-19 22:08:00,
2013-05-19 17:13:00,84.4,63.9,29.59,North,8,14.0,24.0,50,0.00,,,0.00,WUHU216DAVISVP2,2013-05-19 22:13:00,
2013-05-19 17:18:00,84.7,64.7,29.59,NNE,25,4.0,24.0,51,0.00,,,0.00,WUHU216DAVISVP2,2013-05-19 22:18:00,
2013-05-19 17:23:00,84.8,63.7,29.59,NNE,25,15.0,24.0,49,0.00,,,0.00,WUHU216DAVISVP2,2013-05-19 22:23:00,
2013-05-19 17:28:00,85.0,65.6,29.59,NNW,336,7.0,24.0,52,0.00,,,0.00,WUHU216DAVISVP2,2013-05-19 22:28:00,
2013-05-19 17:33:00,85.1,65.1,29.59,North,3,14.0,25.0,51,0.00,,,0.00,WUHU216DAVISVP2,2013-05-19 22:33:00,
2013-05-19 17:38:00,84.9,65.5,29.59,NNW,335,22.0,25.0,52,0.00,,,0.00,WUHU216DAVISVP2,2013-05-19 22:38:00,
2013-05-19 17:43:00,85.0,66.1,29.59,NNW,345,15.0,25.0,53,0.00,,,0.00,WUHU216DAVISVP2,2013-05-19 22:43:00,
2013-05-19 17:48:00,84.8,65.4,29.59,NNW,333,21.0,25.0,52,0.00,,,0.00,WUHU216DAVISVP2,2013-05-19 22:48:00,
2013-05-19 17:53:00,84.8,65.9,29.59,North,10,13.0,23.0,53,0.00,,,0.00,WUHU216DAVISVP2,2013-05-19 22:53:00,
2013-05-19 17:58:00,84.8,66.0,29.59,North,360,8.0,23.0,53,0.00,,,0.00,WUHU216DAVISVP2,2013-05-19 22:58:00,
2013-05-19 18:03:00,84.8,65.9,29.60,NE,52,11.0,23.0,53,0.00,,,0.00,WUHU216DAVISVP2,2013-05-19 23:03:00,
2013-05-19 18:08:00,84.6,66.9,29.60,NNW,335,10.0,22.0,55,0.00,,,0.00,WUHU216DAVISVP2,2013-05-19 23:08:00,
2013-05-19 18:13:00,84.4,67.2,29.60,NW,326,11.0,19.0,56,0.00,,,0.00,WUHU216DAVISVP2,2013-05-19 23:13:00,
2013-05-19 18:18:00,84.2,66.5,29.60,North,356,7.0,19.0,55,0.00,,,0.00,WUHU216DAVISVP2,2013-05-19 23:18:00,
2013-05-19 18:23:00,83.9,66.8,29.60,NNW,337,16.0,19.0,56,0.00,,,0.00,WUHU216DAVISVP2,2013-05-19 23:23:00,
2013-05-19 18:28:00,83.6,67.0,29.60,North,5,8.0,21.0,57,0.00,,,0.00,WUHU216DAVISVP2,2013-05-19 23:28:00,
2013-05-19 18:33:00,83.3,66.7,29.59,NNW,341,8.0,25.0,57,0.00,,,0.00,WUHU216DAVISVP2,2013-05-19 23:33:00,
2013-05-19 18:38:00,83.0,66.4,29.59,North,350,8.0,25.0,57,0.00,,,0.00,WUHU216DAVISVP2,2013-05-19 23:38:00,
2013-05-19 18:43:00,82.9,66.8,29.60,NNW,346,5.0,25.0,58,0.00,,,0.00,WUHU216DAVISVP2,2013-05-19 23:43:00,
2013-05-19 18:48:00,82.6,66.1,29.60,North,356,15.0,25.0,57,0.00,,,0.00,WUHU216DAVISVP2,2013-05-19 23:48:00,
2013-05-19 18:53:00,82.3,66.3,29.60,NNW,346,9.0,19.0,58,0.00,,,0.00,WUHU216DAVISVP2,2013-05-19 23:53:00,
2013-05-19 18:58:00,82.1,66.1,29.60,North,358,10.0,19.0,58,0.00,,,0.00,WUHU216DAVISVP2,2013-05-19 23:58:00,
2013-05-19 19:03:00,81.7,66.2,29.61,North,351,5.0,19.0,59,0.00,,,0.00,WUHU216DAVISVP2,2013-05-20 00:03:00,
2013-05-19 19:08:00,81.4,66.4,29.61,North,351,6.0,18.0,60,0.00,,,0.00,WUHU216DAVISVP2,2013-05-20 00:08:00,
2013-05-19 19:13:00,81.1,66.1,29.61,NNW,341,10.0,15.0,60,0.00,,,0.00,WUHU216DAVISVP2,2013-05-20 00:13:00,
2013-05-19 19:18:00,80.8,66.4,29.61,North,353,1.0,14.0,61,0.00,,,0.00,WUHU216DAVISVP2,2013-05-20 00:18:00,
2013-05-19 19:23:00,80.5,66.0,29.61,North,5,4.0,14.0,61,0.00,,,0.00,WUHU216DAVISVP2,2013-05-20 00:23:00,
2013-05-19 19:28:00,80.2,66.2,29.60,NNW,337,9.0,14.0,62,0.00,,,0.00,WUHU216DAVISVP2,2013-05-20 00:28:00,
2013-05-19 19:33:00,79.8,65.9,29.60,North,4,6.0,16.0,62,0.00,,,0.00,WUHU216DAVISVP2,2013-05-20 00:33:00,
2013-05-19 19:38:00,79.6,66.1,29.59,NNW,343,4.0,16.0,63,0.00,,,0.00,WUHU216DAVISVP2,2013-05-20 00:38:00,
2013-05-19 19:43:00,79.4,66.4,29.59,NNW,339,10.0,16.0,64,0.00,,,0.00,WUHU216DAVISVP2,2013-05-20 00:43:00,
2013-05-19 19:48:00,79.2,66.7,29.60,North,351,8.0,17.0,65,0.00,,,0.00,WUHU216DAVISVP2,2013-05-20 00:48:00,
2013-05-19 19:53:00,79.0,66.9,29.61,North,10,13.0,17.0,66,0.00,,,0.00,WUHU216DAVISVP2,2013-05-20 00:53:00,
2013-05-19 19:58:00,78.7,66.7,29.61,North,357,7.0,17.0,66,0.00,,,0.00,WUHU216DAVISVP2,2013-05-20 00:58:00,
2013-05-19 20:03:00,78.6,67.0,29.62,North,349,8.0,17.0,67,0.00,,,0.00,WUHU216DAVISVP2,2013-05-20 01:03:00,
2013-05-19 20:08:00,78.5,66.8,29.62,NNE,15,5.0,17.0,67,0.00,,,0.00,WUHU216DAVISVP2,2013-05-20 01:08:00,
2013-05-19 20:13:00,78.4,66.8,29.64,NNE,25,6.0,17.0,67,0.00,,,0.00,WUHU216DAVISVP2,2013-05-20 01:13:00,
2013-05-19 20:18:00,78.2,67.0,29.64,NNW,338,5.0,17.0,68,0.00,,,0.00,WUHU216DAVISVP2,2013-05-20 01:18:00,
2013-05-19 20:23:00,78.2,67.0,29.64,North,2,6.0,16.0,68,0.00,,,0.00,WUHU216DAVISVP2,2013-05-20 01:23:00,
2013-05-19 20:28:00,78.0,67.3,29.64,NNE,15,5.0,16.0,69,0.00,,,0.00,WUHU216DAVISVP2,2013-05-20 01:28:00,
2013-05-19 20:33:00,77.9,67.1,29.64,NE,40,7.0,15.0,69,0.00,,,0.00,WUHU216DAVISVP2,2013-05-20 01:33:00,
2013-05-19 20:38:00,77.8,67.0,29.65,NNE,32,7.0,15.0,69,0.00,,,0.00,WUHU216DAVISVP2,2013-05-20 01:38:00,
2013-05-19 20:43:00,77.7,66.9,29.66,North,353,1.0,13.0,69,0.00,,,0.00,WUHU216DAVISVP2,2013-05-20 01:43:00,
2013-05-19 20:48:00,77.5,67.2,29.66,NNE,15,6.0,11.0,70,0.00,,,0.00,WUHU216DAVISVP2,2013-05-20 01:48:00,
2013-05-19 20:53:00,77.3,67.0,29.67,NE,44,4.0,10.0,70,0.00,,,0.00,WUHU216DAVISVP2,2013-05-20 01:53:00,
2013-05-19 20:58:00,77.2,66.8,29.67,NNE,29,2.0,10.0,70,0.00,,,0.00,WUHU216DAVISVP2,2013-05-20 01:58:00,
2013-05-19 21:03:00,76.9,67.0,29.68,East,81,8.0,10.0,71,0.00,,,0.00,WUHU216DAVISVP2,2013-05-20 02:03:00,
2013-05-19 21:08:00,76.4,68.1,29.68,ESE,102,2.0,10.0,75,0.01,,,0.01,WUHU216DAVISVP2,2013-05-20 02:08:00,
2013-05-19 21:13:00,75.5,67.2,29.70,ESE,103,2.0,9.0,75,0.02,,,0.02,WUHU216DAVISVP2,2013-05-20 02:13:00,
2013-05-19 21:18:00,74.5,67.4,29.67,NW,314,8.0,9.0,78,0.07,,,0.07,WUHU216DAVISVP2,2013-05-20 02:18:00,
2013-05-19 21:23:00,73.2,67.1,29.67,NNW,335,0.0,9.0,81,0.09,,,0.09,WUHU216DAVISVP2,2013-05-20 02:23:00,
2013-05-19 21:28:00,72.1,66.7,29.66,NNW,332,3.0,9.0,83,0.10,,,0.10,WUHU216DAVISVP2,2013-05-20 02:28:00,
2013-05-19 21:33:00,71.3,66.6,29.66,NNW,330,4.0,9.0,85,0.10,,,0.10,WUHU216DAVISVP2,2013-05-20 02:33:00,
2013-05-19 21:38:00,70.6,66.6,29.67,NW,324,6.0,7.0,87,0.10,,,0.10,WUHU216DAVISVP2,2013-05-20 02:38:00,
2013-05-19 21:43:00,70.2,66.5,29.64,NW,308,9.0,13.0,88,0.10,,,0.10,WUHU216DAVISVP2,2013-05-20 02:43:00,
2013-05-19 21:48:00,70.4,66.7,29.63,NW,324,6.0,14.0,88,0.10,,,0.10,WUHU216DAVISVP2,2013-05-20 02:48:00,
2013-05-19 21:53:00,71.0,66.9,29.64,NNW,346,16.0,16.0,87,0.10,,,0.10,WUHU216DAVISVP2,2013-05-20 02:53:00,
2013-05-19 21:58:00,71.6,66.6,29.65,North,352,9.0,19.0,84,0.10,,,0.10,WUHU216DAVISVP2,2013-05-20 02:58:00,
2013-05-19 22:03:00,71.9,66.9,29.65,North,9,8.0,19.0,84,0.10,,,0.10,WUHU216DAVISVP2,2013-05-20 03:03:00,
2013-05-19 22:08:00,71.8,66.7,29.65,North,355,4.0,19.0,84,0.09,,,0.10,WUHU216DAVISVP2,2013-05-20 03:08:00,
2013-05-19 22:13:00,71.7,66.6,29.65,NW,326,9.0,18.0,84,0.08,,,0.10,WUHU216DAVISVP2,2013-05-20 03:13:00,
2013-05-19 22:18:00,71.5,66.7,29.65,NNW,347,0.0,12.0,85,0.03,,,0.10,WUHU216DAVISVP2,2013-05-20 03:18:00,
2013-05-19 22:23:00,71.3,66.6,29.66,NNW,341,4.0,11.0,85,0.01,,,0.10,WUHU216DAVISVP2,2013-05-20 03:23:00,
2013-05-19 22:28:00,71.4,66.7,29.66,NNW,335,3.0,11.0,85,0.00,,,0.10,WUHU216DAVISVP2,2013-05-20 03:28:00,
2013-05-19 22:33:00,71.5,66.4,29.65,NW,322,10.0,11.0,84,0.00,,,0.10,WUHU216DAVISVP2,2013-05-20 03:33:00,
2013-05-19 22:38:00,71.6,66.5,29.65,NNW,337,4.0,11.0,84,0.00,,,0.10,WUHU216DAVISVP2,2013-05-20 03:38:00,
2013-05-19 22:43:00,71.6,66.5,29.64,NNW,343,6.0,11.0,84,0.00,,,0.10,WUHU216DAVISVP2,2013-05-20 03:43:00,
2013-05-19 22:48:00,71.6,66.3,29.64,North,350,14.0,14.0,83,0.00,,,0.10,WUHU216DAVISVP2,2013-05-20 03:48:00,
2013-05-19 22:53:00,71.7,66.3,29.63,NNW,327,10.0,14.0,83,0.00,,,0.10,WUHU216DAVISVP2,2013-05-20 03:53:00,
2013-05-19 22:58:00,71.9,66.2,29.60,NW,314,11.0,18.0,82,0.00,,,0.10,WUHU216DAVISVP2,2013-05-20 03:58:00,
2013-05-19 23:01:00,72.0,66.3,29.60,NW,304,8.0,18.0,82,0.00,,,0.10,WUHU216DAVISVP2,2013-05-20 04:01:00,
2013-05-19 23:06:00,72.3,66.2,29.61,North,4,1.0,23.0,81,0.00,,,0.10,WUHU216DAVISVP2,2013-05-20 04:06:00,
2013-05-19 23:11:00,72.6,66.1,29.65,ENE,77,10.0,23.0,80,0.00,,,0.10,WUHU216DAVISVP2,2013-05-20 04:11:00,
2013-05-19 23:16:00,72.7,66.0,29.64,NE,41,1.0,23.0,79,0.00,,,0.10,WUHU216DAVISVP2,2013-05-20 04:16:00,
2013-05-19 23:21:00,72.7,65.9,29.65,ENE,60,3.0,23.0,79,0.00,,,0.10,WUHU216DAVISVP2,2013-05-20 04:21:00,
2013-05-19 23:26:00,72.8,66.0,29.66,North,1,7.0,11.0,79,0.00,,,0.10,WUHU216DAVISVP2,2013-05-20 04:26:00,
2013-05-19 23:31:00,72.8,66.0,29.66,North,358,5.0,10.0,79,0.00,,,0.10,WUHU216DAVISVP2,2013-05-20 04:31:00,
2013-05-19 23:36:00,72.8,66.0,29.67,North,359,7.0,10.0,79,0.00,,,0.10,WUHU216DAVISVP2,2013-05-20 04:36:00,
2013-05-19 23:41:00,72.9,66.1,29.67,North,4,3.0,10.0,79,0.00,,,0.10,WUHU216DAVISVP2,2013-05-20 04:41:00,
2013-05-19 23:46:00,72.8,65.6,29.67,North,350,5.0,11.0,78,0.00,,,0.10,WUHU216DAVISVP2,2013-05-20 04:46:00,
2013-05-19 23:51:00,72.9,65.7,29.66,North,353,8.0,11.0,78,0.00,,,0.10,WUHU216DAVISVP2,2013-05-20 04:51:00,
2013-05-19 23:56:00,72.9,66.1,29.66,North,7,6.0,13.0,79,0.00,,,0.10,WUHU216DAVISVP2,2013-05-20 04:56:00,